Hourly Data Report for July 05, 2022

LYNN LAKE
MANITOBA
Current Station Operator: NAVCAN

56°51'50.000" N
101°04'34.000" W
356.60 m
5061645
71078
YYL

Download Data

Hourly Data (July 2022)
Hourly Data Report for July 5, 2022
TIME
LST
Temp Definition
°C
Dew Point Definition
°C
Rel Hum Definition
%
Precip. Amount Definition
mm

Wind Dir Definition
10's deg

Wind Spd Definition
km/h
Visibility Definition
km
Stn Press Definition
kPa
Hmdx Definition


Wind Chill Definition


Weather Definition


00:00 8.9 7.1 88 0.2 21 8 16.1 97.92     LegendNANA
01:00 9.1 7.1 87 0.0 24 8 16.1 97.94     LegendNANA
02:00 7.1 5.7 91 0.0 25 4 16.1 97.94     LegendNANA
03:00 6.6 5.2 91 0.0   0 16.1 97.95     LegendNANA
04:00 5.4 5.1 98 0.0 15 8 16.1 97.98     LegendNANA
05:00 5.9 5.9 100 0.0 25 8 16.1 97.99     LegendNANA
06:00 10.5 8.5 87 0.0 LegendMM 4 16.1 98.00     LegendNANA
07:00 14.1 7.0 62 0.0 29 5 16.1 97.99     LegendNANA
08:00 17.1 7.5 53 0.0 27 5 16.1 97.99     LegendNANA
09:00 19.0 3.9 37 0.0 LegendMM 9 16.1 97.95     LegendNANA
10:00 19.4 3.6 35 0.0 29 9 16.1 97.91     LegendNANA
11:00 18.8 4.2 38 0.0 35 9 16.1 97.88     LegendNANA
12:00 19.8 3.0 32 0.0 4 11 16.1 97.84     LegendNANA
13:00 20.4 3.0 31 0.0 2 13 16.1 97.82     LegendNANA
14:00 20.0 3.0 32 0.0 LegendMM 5 16.1 97.79     LegendNANA
15:00 21.8 2.8 28 0.0 LegendMM 11 16.1 97.73     LegendNANA
16:00 22.6 3.1 28 0.0 LegendMM 5 16.1 97.67     LegendNANA
17:00 22.3 2.7 27 0.0 LegendMM 11 16.1 97.62     LegendNANA
18:00 22.6 2.7 27 0.0 2 11 16.1 97.58     LegendNANA
19:00 22.1 3.5 29 0.0 1 11 16.1 97.55     LegendNANA
20:00 20.8 3.8 32 0.0 34 9 16.1 97.54     LegendNANA
21:00 18.6 2.5 34 0.0 32 9 16.1 97.55     LegendNANA
22:00 15.1 2.1 41 0.0 31 8 16.1 97.55     LegendNANA
23:00 13.9 5.1 55 0.0 31 11 16.1 97.55     LegendNANA

Notes on Data Quality.

Legend

  • E = Estimated
  • M = Missing
  • NA = Not Available*
  • [empty] = Indicates an unobserved value
Date modified: